sat.trackr.live / text

‹ back to catalog

PLEIADES NEO 4

NORAD 49070 · 2021-073E

PAYLOAD ACTIVE UNKNOWN

§ Identity

Operator
Country
FR
Launch date
2021-08-17
Launch site
FRGUI
Launch vehicle
Mass (kg)
RCS (m²)

Purposes: earth_obs

External: N2YO · Heavens-Above · Gunter

§ Orbital elements

Epoch: 2026-05-25T04:34:44.928192Z

Period
97.19 min
Inclination
97.8927°
Eccentricity
0.0001462
Mean motion
14.81671706 rev/d
Perigee alt
623.0 km
Apogee alt
625.1 km
Semi-major
7,002.2 km
B*
9.8495e-5
RAAN
220.2839°
Arg perigee
92.3587°
Mean anomaly
267.7793°
Rev number
25,796

§ Raw data

PLEIADES NEO 41 49070U 21073E   26145.19079778  .00000723  00000+0  98495-4 0  99992 49070  97.8927 220.2839 0001462  92.3587 267.7793 14.81671706257968

JSON: /api/v1/satellites/49070 · /tle

For live sub-satellite position, see the globe view (requires WebGL).

§ Visibility from observer

Set your observer location to see the next 7 days of passes ≥ 10°. The values pass through the URL so the page stays shareable.

No JS? Fill the form by hand. The geolocation button needs JavaScript.

§ Radio — SatNOGS DB

ModeDescriptionDownlinkUplink
BPSK S-band telemetry 2.266 GHz

1 transmitter · refreshed weekly from db.satnogs.org